Flag for Germany Weather past 2 weeks in Ellwangen (Jagst), Baden-Württemberg, Germany

Now
61 °F

Scattered clouds.


Feels Like: 61 °F
Forecast: 44 / 63 °F
Wind: 7 mph from West

Location: Stoetten

Current Time: Sep 4, 2015 at 3:32:17 PM

Latest Report: Sep 4, 2015 at 3:00 PM


Visibility: 47 mi

Pressure: 29.97 "Hg

Humidity: 49%

Dew point: 42 °F

Location of Ellwangen (Jagst)Location

Historic Weather in Ellwangen (Jagst) — Graph

°F

Ellwangen (Jagst) temperature yesterday

Maximum temperature yesterday: 59 °F (at 7:00 PM)
Minimum temperature yesterday: 52 °F (at 7:00 AM)
Average temperature yesterday: 55 °F

Past Weeks' High & Low Weather Summary

 TemperatureHumidityPressure
High87 °F (Aug 30, 5:00 PM)100% (Sep 1, 6:00 PM)30.28 "Hg (Sep 1, 6:00 PM)
Low49 °F (Sep 4, 7:00 AM)31% (Aug 31, 7:00 PM)29.67 "Hg (Aug 24, 3:00 PM)
Average64 °F68%30.00 "Hg
* Reported Aug 20 2:00 PM — Sep 4 2:00 PM, Ellwangen (Jagst), Weather by CustomWeather, © 2015

Note: Actual official high and low records may vary slightly from our data, if they occured in-between our weather recording intervals... More about our weather records

Advertising

Ellwangen (Jagst) weather history for previous 24 hours

 ConditionsComfort  
Time TempWeatherWind HumidityBarometerVisibility
2:00 PM
Fri, Sep 4
59 °FScattered clouds.6 mph54%29.99 "Hg47 mi
1:00 PM59 °FPassing clouds.6 mph57%30.00 "Hg47 mi
12:00 PM59 °FPassing clouds.6 mph62%30.00 "Hg47 mi
11:00 AM56 °FPassing clouds.5 mph60%30.02 "Hg47 mi
10:00 AM54 °FScattered clouds.3 mph69%30.02 "Hg47 mi
9:00 AM52 °FScattered clouds.2 mph73%30.02 "Hg47 mi
8:00 AM50 °FOvercast.N/A87%30.03 "Hg37 mi
7:00 AM49 °FOvercast.2 mph85%30.02 "Hg34 mi
5:00 AM50 °FOvercast.N/A80%30.02 "Hg31 mi
4:00 AM51 °FOvercast.N/A79%30.01 "Hg34 mi
3:00 AM50 °FPassing clouds.N/A80%30.03 "Hg34 mi
2:00 AM50 °FPassing clouds.N/A79%30.03 "Hg31 mi
1:00 AM52 °FOvercast.N/A78%30.02 "Hg31 mi
11:00 PM
Thu, Sep 3
54 °FOvercast.N/A85%30.00 "Hg11 mi
10:00 PM54 °FOvercast.N/A86%29.99 "Hg11 mi
9:00 PM56 °FPassing clouds.2 mph75%29.98 "Hg47 mi
8:00 PM56 °FOvercast.1 mph74%29.96 "Hg47 mi
7:00 PM59 °FOvercast.2 mph64%29.94 "Hg37 mi
6:00 PM58 °FOvercast.2 mph73%29.95 "Hg37 mi
5:00 PM58 °FOvercast.3 mph73%29.94 "Hg34 mi
4:00 PM58 °FOvercast.5 mph76%29.94 "Hg25 mi
3:00 PM58 °FOvercast.3 mph72%29.94 "Hg10 mi
Weather by CustomWeather, © 2015

See weather overviewHow to use our weather pages